Flag for Belgium Weather past 2 weeks in Brussels, Belgium

Now
58 °F

Cool.


Feels Like: 58 °F
Forecast: 52 / 72 °F
Wind: 2 mph from Northeast

Location: Uccle


UV Index: 0 (Low)

Visibility: N/A


Pressure: 30.10 "Hg

Humidity: 84%

Dew point: 53 °F

Location of BrusselsLocation

Historic Weather in Brussels

°F

Brussels temperature yesterday

Maximum temperature yesterday: 67 °F (at 4:00 PM)
Minimum temperature yesterday: 47 °F (at 7:00 AM)
Average temperature yesterday: 57 °F

Past Weeks' High & Low Weather Summary

 TemperatureHumidityPressure
High68 °F (Apr 20, 6:00 PM)93% (Apr 12, 9:00 AM)30.44 "Hg (Apr 12, 9:00 AM)
Low36 °F (Apr 16, 7:00 AM)27% (Apr 17, 4:00 PM)29.59 "Hg (Apr 21, 5:00 PM)
Average52 °F66%30.07 "Hg
* Reported Apr 9 1:00 PM — Apr 24 1:00 PM, Brussels, Weather by CustomWeather, © 2014

Note: Actual official high and low records may vary slightly from our data, if they occured in-between our weather recording intervals... More about our weather records

Advertising

Historic Weather Conditions — Data for Previous 24 hours

 ConditionsComfort  
Time TempWeatherWind HumidityBarometerVisibility
1:00 PM
Apr 24
58 °FCool.2 mph84%30.10 "HgN/A
12:00 PM58 °FCool.1 mph81%30.12 "HgN/A
11:00 AM57 °FCool.1 mph78%30.13 "HgN/A
10:00 AM57 °FCool.2 mph80%30.13 "HgN/A
9:00 AM55 °FCool.2 mph83%30.11 "HgN/A
8:00 AM53 °FCool.2 mph85%30.11 "HgN/A
7:00 AM54 °FCool.2 mph81%30.10 "HgN/A
6:00 AM54 °FCool.1 mph78%30.09 "HgN/A
5:00 AM54 °FCool.2 mph79%30.09 "HgN/A
4:00 AM54 °FCool.2 mph81%30.09 "HgN/A
3:00 AM52 °FCool.2 mph83%30.10 "HgN/A
2:00 AM52 °FCool.2 mph80%30.11 "HgN/A
1:00 AM53 °FCool.2 mph76%30.11 "HgN/A
12:00 AM54 °FCool.1 mph73%30.11 "HgN/A
11:00 PM
Apr 23
56 °FCool.1 mph69%30.10 "HgN/A
10:00 PM59 °FCool.1 mph63%30.11 "HgN/A
9:00 PM62 °FRefreshingly cool.1 mph52%30.09 "HgN/A
8:00 PM64 °FMild.1 mph50%30.07 "HgN/A
7:00 PM65 °FMild.1 mph45%30.07 "HgN/A
6:00 PM65 °FMild.1 mph44%30.07 "HgN/A
5:00 PM67 °FMild.2 mph40%30.08 "HgN/A
4:00 PM67 °FMild.2 mph44%30.09 "HgN/A
3:00 PM66 °FMild.2 mph46%30.10 "HgN/A
2:00 PM65 °FMild.2 mph52%30.10 "HgN/A
Weather by CustomWeather, © 2014

See weather overview